Terminal Aerodrome Forecast
Issued by NWS

Home | Current Version | Previous Version | Text Only | Print | Product List | Glossary On
Versions: 1 2 3 4 5 6 7 8 9 10 11 12 13 14 15 16 17 18 19 20 21 22 23 24 25 26 27 28 29 30 31 32 33 34 35 36 37 38 39 40 41 42 43 44 45 46 47 48 49 50
000
FTUS45 KBOU 300537
TAFBJC
TAF
KBJC 300537Z 3006/0106 17007KT P6SM FEW012 SCT060 BKN090
     FM300800 30010KT P6SM SCT070 BKN120
     FM301200 24008KT P6SM FEW080 SCT140
     FM301800 28011KT P6SM FEW140 SCT200
     FM302200 32010KT P6SM SCT090 BKN140
     FM010100 35007KT P6SM SCT070 BKN100
     FM010500 24008KT P6SM SCT090 BKN130=

USA.gov is the U.S. government's official web portal to all federal, state and local government web resources and services.